UZB65 UZTT-UZST

Flight info

Callsign UZB65
Flight time N/A
Altitude 28000
Route N0450F280 KUFIM L170 PR B165 ETVIN T962 UMGAP
Aircraft A21N/M-VGDW/C

Departure

Time 2026-04-30 08:44
Airport Tashkent International Airport (UZTT)

Arrival

Time N/A
Airport UZST
Time Latitude Longitude Altitude Speed Heading
2026-04-30 08:23 41.25212 69.26475 1425 ft 0 kts 180°
2026-04-30 08:36 41.25211 69.26475 1425 ft 0 kts 180°
2026-04-30 08:37 41.25200 69.26475 1425 ft 3 kts 180°
2026-04-30 08:37 41.25169 69.26501 1425 ft 7 kts 114°
2026-04-30 08:37 41.25164 69.26594 1425 ft 12 kts 90°
2026-04-30 08:37 41.25164 69.26707 1425 ft 9 kts 89°
2026-04-30 08:38 41.25203 69.26757 1425 ft 8 kts
2026-04-30 08:38 41.25270 69.26792 1425 ft 12 kts 45°
2026-04-30 08:38 41.25334 69.26895 1425 ft 16 kts 51°
2026-04-30 08:38 41.25413 69.27025 1425 ft 19 kts 51°
2026-04-30 08:39 41.25504 69.27177 1425 ft 22 kts 51°
2026-04-30 08:39 41.25573 69.27367 1425 ft 24 kts 80°
2026-04-30 08:39 41.25599 69.27600 1425 ft 26 kts 81°
2026-04-30 08:39 41.25626 69.27847 1425 ft 28 kts 82°
2026-04-30 08:40 41.25655 69.28115 1425 ft 29 kts 81°
2026-04-30 08:40 41.25686 69.28390 1425 ft 30 kts 81°
2026-04-30 08:40 41.25717 69.28678 1425 ft 32 kts 81°
2026-04-30 08:40 41.25750 69.28976 1425 ft 33 kts 81°
2026-04-30 08:41 41.25784 69.29279 1425 ft 33 kts 81°
2026-04-30 08:41 41.25818 69.29589 1425 ft 34 kts 81°
2026-04-30 08:41 41.25852 69.29906 1425 ft 35 kts 81°
2026-04-30 08:41 41.25882 69.30182 1425 ft 27 kts 82°
2026-04-30 08:42 41.25911 69.30370 1425 ft 12 kts 50°
2026-04-30 08:42 41.26006 69.30388 1425 ft 16 kts 352°
2026-04-30 08:42 41.26082 69.30328 1425 ft 13 kts 288°
2026-04-30 08:42 41.26083 69.30284 1425 ft 0 kts 264°
2026-04-30 08:43 41.26080 69.30245 1425 ft 22 kts 263°
2026-04-30 08:43 41.26020 69.29689 1425 ft 95 kts 261°
2026-04-30 08:43 41.25893 69.28545 1425 ft 154 kts 260°
2026-04-30 08:43 41.25715 69.26997 1683 ft 178 kts 262°
2026-04-30 08:44 41.25545 69.25357 2229 ft 183 kts 261°
2026-04-30 08:44 41.25337 69.23692 2895 ft 186 kts 261°
2026-04-30 08:44 41.25113 69.21989 3488 ft 189 kts 262°
2026-04-30 08:44 41.24924 69.20188 3826 ft 205 kts 263°
2026-04-30 08:45 41.24732 69.18243 4158 ft 222 kts 263°
2026-04-30 08:45 41.24517 69.16093 4457 ft 244 kts 263°
2026-04-30 08:45 41.24280 69.13867 5201 ft 246 kts 262°
2026-04-30 08:45 41.24036 69.11628 6030 ft 245 kts 261°
2026-04-30 08:46 41.23787 69.09412 6621 ft 247 kts 262°
2026-04-30 08:46 41.23526 69.07114 6943 ft 259 kts 262°
2026-04-30 08:46 41.23245 69.04655 6978 ft 272 kts 262°
2026-04-30 08:46 41.22963 69.02168 6980 ft 274 kts 262°
2026-04-30 08:47 41.22676 68.99669 6981 ft 274 kts 262°
2026-04-30 08:47 41.22386 68.97182 6981 ft 273 kts 261°
2026-04-30 08:47 41.22089 68.94665 6980 ft 274 kts 262°
2026-04-30 08:47 41.21799 68.92195 6980 ft 273 kts 262°
2026-04-30 08:48 41.21497 68.89683 6978 ft 273 kts 259°
2026-04-30 08:48 41.20748 68.87392 6964 ft 279 kts 233°
2026-04-30 08:48 41.19195 68.85767 7123 ft 291 kts 205°
2026-04-30 08:48 41.17307 68.84868 7929 ft 293 kts 201°
2026-04-30 08:49 41.15409 68.84018 8830 ft 291 kts 201°
2026-04-30 08:49 41.13497 68.83131 9760 ft 288 kts 199°
2026-04-30 08:49 41.11648 68.82291 10585 ft 287 kts 200°
2026-04-30 08:49 41.09694 68.81400 10966 ft 303 kts 200°
2026-04-30 08:50 41.07637 68.80452 11275 ft 321 kts 200°
2026-04-30 08:50 41.05506 68.79468 11571 ft 338 kts 200°
2026-04-30 08:50 41.03232 68.78413 11859 ft 354 kts 200°
2026-04-30 08:50 41.00843 68.77305 12136 ft 370 kts 200°
2026-04-30 08:51 40.98360 68.76155 12399 ft 385 kts 200°
2026-04-30 08:51 40.95811 68.74979 12644 ft 399 kts 200°
2026-04-30 08:51 40.93140 68.73752 12958 ft 410 kts 200°
2026-04-30 08:51 40.90424 68.72510 13512 ft 414 kts 200°
2026-04-30 08:52 40.87708 68.71269 14114 ft 416 kts 200°
2026-04-30 08:52 40.84948 68.70007 14635 ft 419 kts 200°
2026-04-30 08:52 40.82212 68.68755 14867 ft 420 kts 200°
2026-04-30 08:52 40.79396 68.67494 14903 ft 423 kts 199°
2026-04-30 08:53 40.76597 68.66309 15337 ft 427 kts 199°
2026-04-30 08:53 40.73762 68.65122 16003 ft 427 kts 199°
2026-04-30 08:53 40.70943 68.63937 16566 ft 429 kts 199°
2026-04-30 08:53 40.68114 68.62701 17083 ft 432 kts 200°
2026-04-30 08:54 40.65246 68.61398 17603 ft 434 kts 201°
2026-04-30 08:54 40.62381 68.60091 18111 ft 437 kts 201°
2026-04-30 08:54 40.59509 68.58787 18610 ft 440 kts 201°
2026-04-30 08:54 40.56614 68.57478 19097 ft 443 kts 201°
2026-04-30 08:55 40.53688 68.56191 19573 ft 446 kts 200°
2026-04-30 08:55 40.50761 68.54936 20038 ft 448 kts 200°
2026-04-30 08:55 40.47765 68.53693 20504 ft 451 kts 199°
2026-04-30 08:55 40.44768 68.52463 20955 ft 454 kts 199°
2026-04-30 08:56 40.41766 68.51234 21395 ft 456 kts 199°
2026-04-30 08:56 40.38716 68.49983 21833 ft 459 kts 200°
2026-04-30 08:56 40.35672 68.48735 22257 ft 461 kts 200°
2026-04-30 08:56 40.32608 68.47478 22669 ft 464 kts 200°
2026-04-30 08:57 40.29531 68.46217 23074 ft 466 kts 200°
2026-04-30 08:57 40.26443 68.44951 23473 ft 468 kts 200°
2026-04-30 08:57 40.23348 68.43684 24000 ft 466 kts 200°
2026-04-30 08:57 40.20246 68.42417 24576 ft 464 kts 200°
2026-04-30 08:58 40.17199 68.41174 25110 ft 462 kts 200°
2026-04-30 08:58 40.14140 68.39926 25614 ft 460 kts 200°
2026-04-30 08:58 40.11089 68.38683 26098 ft 459 kts 200°
2026-04-30 08:58 40.08059 68.37450 26523 ft 459 kts 200°
2026-04-30 08:59 40.04998 68.36204 26871 ft 460 kts 200°
2026-04-30 08:59 40.01953 68.34965 27183 ft 462 kts 200°
2026-04-30 08:59 39.98931 68.33737 27498 ft 463 kts 200°
2026-04-30 08:59 39.95828 68.32478 27797 ft 464 kts 200°
2026-04-30 09:00 39.92749 68.31229 27873 ft 465 kts 200°
2026-04-30 09:00 39.89677 68.29983 27881 ft 465 kts 200°
2026-04-30 09:00 39.86565 68.28722 27889 ft 465 kts 200°
2026-04-30 09:00 39.83485 68.27476 27900 ft 464 kts 200°
2026-04-30 09:01 39.80414 68.26234 27913 ft 464 kts 200°
2026-04-30 09:01 39.77288 68.24972 27927 ft 463 kts 200°
2026-04-30 09:01 39.74233 68.23740 27942 ft 463 kts 200°
2026-04-30 09:01 39.71175 68.22508 27956 ft 462 kts 200°
2026-04-30 09:02 39.64999 68.20022 27981 ft 462 kts 200°
2026-04-30 09:02 39.61948 68.18795 27990 ft 462 kts 200°
2026-04-30 09:02 39.58888 68.17632 27997 ft 463 kts 198°
2026-04-30 09:03 39.52567 68.15870 28004 ft 465 kts 192°
2026-04-30 09:03 39.46204 68.14620 28007 ft 465 kts 191°
2026-04-30 09:04 39.39870 68.13380 28009 ft 465 kts 191°
2026-04-30 09:04 39.33472 68.12130 28009 ft 465 kts 191°
2026-04-30 09:05 39.27081 68.10885 28009 ft 465 kts 191°
2026-04-30 09:05 39.20715 68.09648 28009 ft 465 kts 191°
2026-04-30 09:06 39.14368 68.08417 28001 ft 466 kts 191°
2026-04-30 09:06 39.11137 68.07791 27951 ft 468 kts 191°
2026-04-30 09:06 39.07928 68.07170 27886 ft 469 kts 191°
2026-04-30 09:07 39.04732 68.06551 27833 ft 470 kts 191°
2026-04-30 09:07 39.01485 68.05924 27794 ft 471 kts 191°
2026-04-30 09:07 38.98272 68.05306 27769 ft 473 kts 192°
2026-04-30 09:07 38.94987 68.04673 27754 ft 476 kts 192°
2026-04-30 09:08 38.91744 68.04048 27745 ft 479 kts 192°
2026-04-30 09:08 38.88417 68.03406 27739 ft 482 kts 192°
2026-04-30 09:08 38.85092 68.02766 27738 ft 484 kts 192°
2026-04-30 09:08 38.81748 68.02123 27737 ft 485 kts 192°
2026-04-30 09:09 38.78451 68.01490 27737 ft 485 kts 192°
2026-04-30 09:09 38.75100 68.00848 27737 ft 485 kts 192°
2026-04-30 09:09 38.71756 68.00208 27736 ft 485 kts 192°
2026-04-30 09:09 38.68464 67.99577 27736 ft 485 kts 192°
2026-04-30 09:10 38.65128 67.98940 27736 ft 485 kts 192°
2026-04-30 09:10 38.61783 67.98300 27501 ft 487 kts 192°
2026-04-30 09:10 38.58490 67.97671 26786 ft 485 kts 192°
2026-04-30 09:10 38.55135 67.97029 25915 ft 485 kts 191°
2026-04-30 09:11 38.51812 67.96393 24974 ft 487 kts 191°
2026-04-30 09:11 38.48474 67.95754 23983 ft 489 kts 191°
2026-04-30 09:11 38.45102 67.95109 22948 ft 491 kts 191°
2026-04-30 09:11 38.41811 67.94482 22191 ft 476 kts 191°
2026-04-30 09:12 38.38538 67.93864 21537 ft 471 kts 191°
2026-04-30 09:12 38.35367 67.93265 20901 ft 466 kts 191°
2026-04-30 09:12 38.32170 67.92660 20250 ft 462 kts 190°
2026-04-30 09:12 38.29042 67.92069 19609 ft 457 kts 190°
2026-04-30 09:13 38.25909 67.91478 18962 ft 453 kts 190°
2026-04-30 09:13 38.22816 67.90894 18321 ft 449 kts 190°
2026-04-30 09:13 38.19760 67.90318 17682 ft 445 kts 190°
2026-04-30 09:13 38.16698 67.89742 17038 ft 441 kts 190°
2026-04-30 09:14 38.13697 67.89178 16406 ft 437 kts 189°
2026-04-30 09:14 38.10705 67.88616 15771 ft 433 kts 189°
2026-04-30 09:14 38.07767 67.88065 15129 ft 430 kts 189°
2026-04-30 09:14 38.04818 67.87511 14478 ft 427 kts 189°
2026-04-30 09:15 38.01907 67.86846 13838 ft 422 kts 193°
2026-04-30 09:15 37.99096 67.85899 13213 ft 418 kts 198°
2026-04-30 09:15 37.96413 67.84684 12602 ft 414 kts 202°
2026-04-30 09:15 37.93745 67.83322 12054 ft 407 kts 202°
2026-04-30 09:16 37.91204 67.82006 11496 ft 389 kts 202°
2026-04-30 09:16 37.88736 67.80730 11011 ft 369 kts 202°
2026-04-30 09:16 37.86455 67.79556 10826 ft 343 kts 202°
2026-04-30 09:16 37.84306 67.78456 10646 ft 321 kts 202°
2026-04-30 09:17 37.82288 67.77425 10482 ft 305 kts 202°
2026-04-30 09:17 37.80373 67.76445 10339 ft 295 kts 202°
2026-04-30 09:17 37.78497 67.75486 10221 ft 287 kts 202°
2026-04-30 09:17 37.76642 67.74536 10115 ft 283 kts 202°
2026-04-30 09:18 37.74837 67.73612 10022 ft 280 kts 202°
2026-04-30 09:18 37.73025 67.72683 9940 ft 282 kts 202°
2026-04-30 09:18 37.71217 67.71757 9649 ft 283 kts 202°
2026-04-30 09:18 37.69371 67.70811 8971 ft 293 kts 202°
2026-04-30 09:19 37.67471 67.69835 8455 ft 296 kts 202°
2026-04-30 09:19 37.65585 67.68868 8071 ft 294 kts 202°
2026-04-30 09:19 37.63684 67.67895 7679 ft 292 kts 202°
2026-04-30 09:19 37.61824 67.66944 7285 ft 291 kts 202°
2026-04-30 09:20 37.59965 67.65996 6892 ft 289 kts 202°
2026-04-30 09:20 37.58106 67.65048 6499 ft 288 kts 202°
2026-04-30 09:20 37.56243 67.64098 6104 ft 286 kts 202°
2026-04-30 09:20 37.54411 67.63165 5717 ft 285 kts 202°
2026-04-30 09:21 37.52585 67.62234 5332 ft 283 kts 202°
2026-04-30 09:21 37.50771 67.61312 4949 ft 282 kts 204°
2026-04-30 09:21 37.48978 67.60407 4688 ft 276 kts 204°
2026-04-30 09:21 37.47200 67.59495 4564 ft 277 kts 204°
2026-04-30 09:22 37.45406 67.58575 4431 ft 277 kts 204°
2026-04-30 09:22 37.43644 67.57675 4183 ft 274 kts 204°
2026-04-30 09:22 37.41891 67.56784 3937 ft 272 kts 204°
2026-04-30 09:22 37.40116 67.55883 3770 ft 274 kts 204°
2026-04-30 09:23 37.38360 67.54993 3590 ft 274 kts 204°
2026-04-30 09:23 37.36596 67.54099 3424 ft 269 kts 204°
2026-04-30 09:23 37.34924 67.53252 3413 ft 253 kts 205°
2026-04-30 09:23 37.33546 67.52037 3369 ft 233 kts 238°
2026-04-30 09:24 37.32944 67.50235 3410 ft 221 kts 259°
2026-04-30 09:24 37.32657 67.48431 3533 ft 201 kts 261°
2026-04-30 09:24 37.32364 67.46781 3356 ft 183 kts 258°
2026-04-30 09:24 37.32044 67.45295 3105 ft 170 kts 257°
2026-04-30 09:25 37.31731 67.43945 2875 ft 152 kts 257°
2026-04-30 09:25 37.31441 67.42694 2674 ft 148 kts 257°
2026-04-30 09:25 37.31128 67.41476 2508 ft 148 kts 253°
2026-04-30 09:25 37.30784 67.40257 2297 ft 147 kts 254°
2026-04-30 09:26 37.30466 67.39035 2099 ft 147 kts 256°
2026-04-30 09:26 37.30175 67.37812 1924 ft 146 kts 257°
2026-04-30 09:26 37.29907 67.36582 1729 ft 146 kts 258°
2026-04-30 09:26 37.29647 67.35347 1519 ft 145 kts 259°
2026-04-30 09:27 37.29384 67.34119 1327 ft 145 kts 257°
2026-04-30 09:27 37.29110 67.32909 1141 ft 144 kts 258°
2026-04-30 09:27 37.28842 67.31692 1050 ft 144 kts 257°
2026-04-30 09:27 37.28613 67.30615 1035 ft 94 kts 253°
2026-04-30 09:28 37.28505 67.30125 1035 ft 36 kts 256°
2026-04-30 09:28 37.28471 67.29948 1035 ft 8 kts 256°
2026-04-30 09:28 37.28463 67.29928 1035 ft 0 kts 202°
2026-04-30 09:28 37.28462 67.29927 1035 ft 2 kts 200°
2026-04-30 09:29 37.28452 67.29923 1035 ft 2 kts 202°
2026-04-30 09:29 37.28432 67.29894 1035 ft 5 kts 250°
2026-04-30 09:29 37.28452 67.29880 1035 ft 4 kts 57°
2026-04-30 09:29 37.28458 67.29951 1035 ft 12 kts 75°
2026-04-30 09:30 37.28490 67.30097 1035 ft 22 kts 73°
2026-04-30 09:30 37.28506 67.30302 1035 ft 26 kts 120°
2026-04-30 09:30 37.28405 67.30469 1035 ft 22 kts 127°
2026-04-30 09:30 37.28300 67.30644 1035 ft 27 kts 127°
2026-04-30 09:31 37.28173 67.30849 1035 ft 31 kts 128°
2026-04-30 09:31 37.28101 67.31020 1035 ft 18 kts 82°
2026-04-30 09:31 37.28151 67.31183 1035 ft 21 kts 66°
2026-04-30 09:31 37.28217 67.31377 1035 ft 26 kts 66°
2026-04-30 09:32 37.28281 67.31570 1035 ft 17 kts 67°
2026-04-30 09:32 37.28252 67.31661 1035 ft 14 kts 157°
2026-04-30 09:32 37.28158 67.31711 1035 ft 11 kts 149°
2026-04-30 09:32 37.28145 67.31770 1035 ft 0 kts 76°